Location: *
(46.1006°N, 1.8394°E)
Time: 20:14:14
(UTC+00:00)

COSMOS 2428 - Pass Details

Date: 20 September 2019
Orbit: 846 x 856 km, 70.9° (Epoch: 13 October)

Event Time Altitude Azimuth Distance (km) Brightness Sun altitude
Rises 18:13:25 0° 334° (NNW) 3,417 6.3 -4.0°
Reaches altitude 10° 18:15:54 10° 337° (NNW) 2,478 5.6 -4.4°
Maximum altitude 18:21:34 72° 61° (ENE) 891 2.7 -5.4°
Drops below altitude 10° 18:27:14 10° 147° (SSE) 2,465 4.7 -6.4°
Sets 18:29:41 0° 149° (SSE) 3,398 5.5 -6.8°
